Weather History for Fort Myers, FL

Change the Weather History Date:

Thursday, August 22, 2013

  Actual Average Record
Temperature  
Mean Temperature 84 °F 83 °F  
Max Temperature 94 °F 92 °F 96 °F (1978)
Min Temperature 73 °F 75 °F 70 °F (1973)
Degree Days  
Heating Degree Days 0 0  
Month to date heating degree days 0 0  
Since 1 June heating degree days 0 0  
Since 1 July heating degree days 0 0  
Cooling Degree Days 19 18  
Month to date cooling degree days 400 396  
Year to date cooling degree days 2565 2551  
Since 1 June cooling degree days 1427 1485  
Growing Degree Days 33 (Base 50)    
Moisture  
Dew Point 74 °F    
Average Humidity 87    
Maximum Humidity 100    
Minimum Humidity 49    
Precipitation  
Precipitation 1.37 in 0.34 in 1.89 in (1935)
Month to date precipitation 6.71 7.11  
Year to date precipitation 37.25 38.04  
Sea Level Pressure  
Sea Level Pressure 30.01 in    
Wind  
Wind Speed 6 mph (ENE)    
Max Wind Speed 23 mph    
Max Gust Speed 29 mph    
Visibility 7 miles    
Events Fog , Rain , Thunderstorm    
T = Trace of Precipitation, MM = Missing Value Source: NWS Daily Summary

Daily Weather History Graph

Daily Weather History Graph

Search for Another Location

Airport:

Trip Planner

Search our weather history database for the weather conditions in past years. The results will help you decide how hot, cold, wet, or windy it might be!

Date:

Astronomy

Aug. 22, 2013 Rise Set
Actual Time 7:02 AM EDT 7:57 PM EDT
Civil Twilight 6:38 AM EDT 8:21 PM EDT
Nautical Twilight 6:10 AM EDT 8:49 PM EDT
Astronomical Twilight 5:41 AM EDT 9:18 PM EDT
Moon 8:59 PM EDT (8/22) 8:34 AM EDT (8/22)
Length of Visible Light 13h 42m
Length of Day
12h 54m
Waning Gibbous, 97% of the Moon is Illuminated
Aug 22
Waning Gibbous
Aug 28
Last Quarter
Sep 5
New
Sep 12
First Quarter
Sep 19
Full

Hourly Weather History & Observations

Time (EDT) Temp. Heat Index Dew Point Humidity Pressure Visibility Wind Dir Wind Speed Gust Speed Precip Events Conditions
12:53 AM 79.0 °F - 77.0 °F 94% 30.06 in 10.0 mi East 9.2 mph - N/A   Clear
1:53 AM 78.1 °F - 77.0 °F 96% 30.05 in 10.0 mi East 5.8 mph - N/A   Clear
2:53 AM 78.1 °F - 77.0 °F 96% 30.03 in 10.0 mi ENE 5.8 mph - N/A   Clear
3:53 AM 78.1 °F - 75.9 °F 93% 30.01 in 10.0 mi ESE 5.8 mph - N/A   Clear
4:53 AM 77.0 °F - 75.9 °F 96% 30.02 in 10.0 mi ESE 4.6 mph - N/A   Clear
5:53 AM 77.0 °F - 75.9 °F 96% 30.03 in 10.0 mi East 3.5 mph - N/A   Clear
6:53 AM 75.9 °F - 75.0 °F 97% 30.03 in 10.0 mi Calm Calm - N/A   Clear
7:53 AM 77.0 °F - 75.0 °F 94% 30.03 in 10.0 mi East 5.8 mph - N/A   Clear
8:53 AM 80.1 °F 85.4 °F 75.9 °F 87% 30.05 in 10.0 mi East 6.9 mph - N/A   Clear
9:53 AM 84.0 °F 93.7 °F 77.0 °F 79% 30.05 in - North - - N/A   Clear
10:53 AM 86.0 °F 96.0 °F 75.9 °F 72% 30.06 in 10.0 mi East 12.7 mph - N/A   Scattered Clouds
11:03 AM 86.0 °F 95.1 °F 75.2 °F 70% 30.05 in 10.0 mi ESE 12.7 mph - N/A   Mostly Cloudy
11:13 AM 87.8 °F 97.6 °F 75.2 °F 66% 30.05 in 10.0 mi East 11.5 mph 17.3 mph N/A   Scattered Clouds
11:53 AM 88.0 °F 97.5 °F 75.0 °F 65% 30.05 in 10.0 mi ESE 10.4 mph - N/A   Scattered Clouds
12:53 PM 89.1 °F 97.0 °F 73.0 °F 59% 30.03 in 10.0 mi East 11.5 mph - N/A   Scattered Clouds
1:53 PM 91.0 °F 101.6 °F 75.0 °F 59% 30.01 in 10.0 mi East 5.8 mph - N/A   Scattered Clouds
2:53 PM 93.0 °F 100.7 °F 72.0 °F 50% 29.98 in 10.0 mi ESE 9.2 mph - N/A   Partly Cloudy
3:53 PM 87.1 °F 94.5 °F 73.0 °F 63% 29.95 in 10.0 mi ENE 16.1 mph 23.0 mph N/A   Scattered Clouds
4:02 PM 84.2 °F 90.9 °F 73.4 °F 70% 29.95 in 10.0 mi East 10.4 mph 23.0 mph N/A Thunderstorm Thunderstorm
4:11 PM 80.6 °F 86.2 °F 75.2 °F 84% 29.96 in 1.8 mi SE 9.2 mph - 0.02 in Rain , Thunderstorm Heavy Thunderstorms and Rain
4:21 PM 78.8 °F - 73.4 °F 83% 29.96 in 3.0 mi Calm Calm - 0.10 in Rain , Thunderstorm Light Thunderstorms and Rain
4:37 PM 75.2 °F - 71.6 °F 89% 29.99 in 0.8 mi ENE 9.2 mph 27.6 mph 0.23 in Rain , Thunderstorm Heavy Thunderstorms and Rain
4:49 PM 73.4 °F - 71.6 °F 94% 29.97 in 0.5 mi NNE 10.4 mph 28.8 mph 0.64 in Fog , Rain , Thunderstorm Heavy Thunderstorms and Rain
4:53 PM 73.9 °F - 72.0 °F 93% 29.98 in 1.0 mi North 9.2 mph 28.8 mph 0.68 in Rain , Thunderstorm Thunderstorms and Rain
4:57 PM 73.4 °F - 71.6 °F 94% 29.98 in 2.0 mi North 10.4 mph 18.4 mph 0.01 in Rain , Thunderstorm Thunderstorms and Rain
5:05 PM 75.2 °F - 71.6 °F 89% 29.98 in 7.0 mi North 8.1 mph 18.4 mph 0.01 in Rain , Thunderstorm Light Thunderstorms and Rain
5:46 PM 75.2 °F - 71.6 °F 89% 29.99 in 1.8 mi Calm Calm - 0.05 in Rain Rain
5:53 PM 75.0 °F - 72.0 °F 90% 29.99 in 1.2 mi Calm Calm - 0.09 in Rain Rain
5:58 PM 75.2 °F - 71.6 °F 89% 29.98 in 2.0 mi East 4.6 mph - 0.01 in Rain , Thunderstorm Light Rain
6:08 PM 75.2 °F - 73.4 °F 94% 29.98 in 4.0 mi Calm Calm - 0.02 in Rain , Thunderstorm Light Thunderstorms and Rain
6:30 PM 75.2 °F - 73.4 °F 94% 29.97 in 10.0 mi NE 6.9 mph - 0.03 in Rain Light Rain
6:53 PM 77.0 °F - 73.0 °F 88% 29.98 in 10.0 mi ENE 6.9 mph - 0.03 in Rain Light Rain
7:33 PM 75.2 °F - 73.4 °F 94% 29.99 in 1.8 mi ENE 6.9 mph - 0.05 in Rain Rain
7:44 PM 75.2 °F - 73.4 °F 94% 29.99 in 3.0 mi NE 4.6 mph - 0.10 in Rain Light Rain
7:53 PM 75.0 °F - 73.0 °F 94% 30.00 in 4.0 mi North 6.9 mph - 0.11 in Rain Light Rain
8:06 PM 75.2 °F - 73.4 °F 94% 29.99 in 10.0 mi North 5.8 mph - 0.01 in Thunderstorm Mostly Cloudy
8:21 PM 75.2 °F - 73.4 °F 94% 29.98 in 10.0 mi NNE 5.8 mph - 0.01 in   Scattered Clouds
8:38 PM 75.2 °F - 73.4 °F 94% 30.00 in 10.0 mi NNE 5.8 mph - 0.01 in Thunderstorm Mostly Cloudy
8:53 PM 75.9 °F - 73.0 °F 91% 30.02 in 7.0 mi South 4.6 mph - 0.01 in Rain , Thunderstorm Light Thunderstorms and Rain
9:02 PM 75.2 °F - 73.4 °F 94% 30.01 in 1.8 mi SSW 4.6 mph - 0.02 in Rain , Thunderstorm Rain
9:28 PM 75.2 °F - 73.4 °F 94% 30.02 in 3.0 mi WSW 4.6 mph - 0.27 in Rain , Thunderstorm Light Rain
9:38 PM 75.2 °F - 73.4 °F 94% 30.01 in 1.8 mi Calm Calm - 0.30 in Rain , Thunderstorm Rain
9:44 PM 75.2 °F - 73.4 °F 94% 30.01 in 2.0 mi Calm Calm - 0.33 in Rain Light Rain
9:53 PM 75.0 °F - 73.9 °F 96% 30.02 in 7.0 mi Calm Calm - 0.33 in Rain Light Rain
10:53 PM 75.0 °F - 73.9 °F 96% 30.03 in 6.0 mi East 5.8 mph - 0.04 in Rain Light Rain
11:53 PM 75.9 °F - 75.0 °F 97% 30.03 in 7.0 mi Calm Calm - 0.06 in Rain Light Rain